Погода в Заовражном

Россия / Калининградская область     54°37′22″N   21°37′08″E
темп.,
°C
ветер,
м/с
пор.,
м/с
влажн.,
%
обл.,
%
осадки,
мм/ч
давл.,
гПа
погр.,
м
20 июня, вс
вс2023:00+21ююв39835 0.0 1016195
02:00+19ююв39907 0.0 1016167
05:00+18ююв38895 0.0 1016178
08:00+23ююв48735 0.0 1016413
11:00+27ю46580 0.0 10161336
14:00+28ююв57510 0.0 10151730
17:00+29ююв47580 0.0 10131739
20:00+24юв39811 0.5 1012204
21 июня, пн
пн2123:00+21ююв310850 0.0 1013213
02:00+19юв38940 0.0 1013178
05:00+19юв39925 0.0 1012186
08:00+24ююв48723 0.0 1012452
11:00+27юв58540 0.0 10121136
14:00+29юв58474 0.0 10111704
17:00+28юв47560 0.0 10101722
20:00+24юв410757 0.1 1009364
22 июня, вт
вт2223:00+20юв38880 0.0 1010180
02:00+19юв310920 0.0 1009219
05:00+18ююв310965 1.9 1009223
08:00+23ю46835 1.9 1010434
11:00+26ююз347466 3.0 1011980
14:00+25зсз2282100 5.1 1011820
17:00+20с4595100 2.1 1013266
20:00+18ссз2596100 3.0 1014184
23 июня, ср
ср2323:00+15ссз259799 0.0 1015109
02:00+13ссз22941 0.0 101525
05:00+13ссв22920 0.0 101537
08:00+19ссв12720 0.0 1016250
11:00+24св226362 0.0 1015640
14:00+28св226126 0.0 10151137
17:00+28всв336422 0.0 10141147
20:00+24ссв2389100 0.9 101443
24 июня, чт
чт2423:00+20ссв239789 7.2 101567
02:00+19ю3496100 8.3 101575
05:00+18юз269810 0.0 1015146
08:00+20зюз459176 0.0 1016415
11:00+24зюз45685 0.0 1017907
14:00+25зюз44605 0.0 10171171
17:00+25з226389 0.0 10171070
20:00+21ссз36830 0.0 1016274